Weather History for KPIL - January, 2013

Change the Weather History Date:

Monday, January 14, 2013

  Actual Average Record
Temperature  
Mean Temperature 52 °F -  
Max Temperature 55 °F - - ()
Min Temperature 48 °F - - ()
Degree Days  
Heating Degree Days 14    
Growing Degree Days 2 (Base 50)    
Moisture  
Dew Point 45 °F    
Average Humidity 81    
Maximum Humidity 93    
Minimum Humidity 68    
Precipitation  
Precipitation 0.00 in - - ()
Sea Level Pressure  
Sea Level Pressure 30.08 in    
Wind  
Wind Speed 14 mph (NNW)    
Max Wind Speed 21 mph    
Max Gust Speed 28 mph    
Visibility 8 miles    
Events Rain    
T = Trace of Precipitation, MM = Missing Value Source: NWS Daily Summary

Daily Weather History Graph

Daily Weather History Graph

Search for Another Location

Airport or City:

Trip Planner

Search our weather history database for the weather conditions in past years. The results will help you decide how hot, cold, wet, or windy it might be!

Date:

Astronomy

Jan. 14, 2013 Rise Set
Actual Time 7:18 AM CST 5:58 PM CST
Civil Twilight 6:53 AM CST 6:23 PM CST
Nautical Twilight 6:25 AM CST 6:52 PM CST
Astronomical Twilight 5:57 AM CST 7:20 PM CST
Moon 9:15 AM CST (1/14) 9:19 PM CST (1/14)
Length of Visible Light 11h 30m
Length of Day
10h 40m
Waxing Crescent, 11% of the Moon is Illuminated
Jan 14
Waxing Crescent
Jan 18
First Quarter
Jan 26
Full
Feb 3
Last Quarter
Feb 10
New

Hourly Weather History & Observations

Time (CST) Temp. Dew Point Humidity Pressure Visibility Wind Dir Wind Speed Gust Speed Precip Events Conditions
12:53 AM 55.9 °F 46.0 °F 69% 30.04 in 10.0 mi North 11.5 mph - N/A   Overcast
1:53 AM 55.9 °F 46.9 °F 72% 30.03 in 10.0 mi North 11.5 mph - N/A   Overcast
2:53 AM 55.9 °F 46.9 °F 72% 30.04 in 10.0 mi North 11.5 mph - N/A   Overcast
3:53 AM 55.0 °F 46.9 °F 74% 30.04 in 10.0 mi NNW 15.0 mph - N/A   Overcast
4:53 AM 54.0 °F 45.0 °F 72% 30.04 in 10.0 mi North 15.0 mph 24.2 mph N/A   Overcast
5:37 AM 51.8 °F 44.6 °F 76% 30.05 in 10.0 mi NNW 20.7 mph - N/A   Overcast
5:53 AM 52.0 °F 45.0 °F 77% 30.05 in 10.0 mi NNW 17.3 mph - N/A   Overcast
6:53 AM 52.0 °F 45.0 °F 77% 30.07 in 10.0 mi NNW 17.3 mph - N/A   Overcast
7:53 AM 51.1 °F 43.0 °F 74% 30.09 in 10.0 mi NNW 17.3 mph - N/A   Overcast
8:03 AM 51.8 °F 42.8 °F 71% 30.10 in 10.0 mi NNW 15.0 mph - N/A   Overcast
8:53 AM 51.1 °F 41.0 °F 68% 30.14 in 10.0 mi NNW 16.1 mph 24.2 mph N/A   Overcast
9:53 AM 50.0 °F 41.0 °F 71% 30.16 in 9.0 mi North 16.1 mph - N/A   Overcast
10:46 AM 48.2 °F 42.8 °F 82% 30.16 in 9.0 mi North 19.6 mph 25.3 mph N/A   Overcast
10:53 AM 48.9 °F 42.1 °F 77% 30.16 in 9.0 mi North 19.6 mph 26.5 mph N/A   Overcast
11:53 AM 48.9 °F 43.0 °F 80% 30.12 in 8.0 mi North 17.3 mph 27.6 mph N/A   Overcast
12:53 PM 50.0 °F 44.1 °F 80% 30.09 in 8.0 mi North 12.7 mph - N/A   Overcast
1:21 PM 50.0 °F 44.6 °F 82% 30.09 in 8.0 mi North 15.0 mph - N/A   Overcast
1:53 PM 50.0 °F 45.0 °F 83% 30.07 in 7.0 mi North 13.8 mph - N/A   Overcast
2:53 PM 50.0 °F 46.9 °F 89% 30.06 in 5.0 mi North 11.5 mph - 0.00 in   Overcast
4:53 PM 50.0 °F 46.9 °F 89% 30.08 in 5.0 mi NNW 13.8 mph - N/A   Overcast
5:53 PM 50.0 °F 46.9 °F 89% 30.09 in 7.0 mi NNW 10.4 mph - N/A   Overcast
6:53 PM 50.0 °F 46.9 °F 89% 30.09 in 5.0 mi NNW 11.5 mph - N/A   Overcast
7:53 PM 48.9 °F 46.9 °F 93% 30.10 in 4.0 mi NW 13.8 mph - N/A   Overcast
8:51 PM 48.2 °F 46.4 °F 93% 30.09 in 3.0 mi NW 13.8 mph - N/A   Overcast
8:53 PM 48.9 °F 46.9 °F 93% 30.09 in 3.0 mi NW 13.8 mph - N/A   Overcast
9:53 PM 48.0 °F 46.0 °F 93% 30.07 in 4.0 mi NNW 13.8 mph - 0.00 in Rain Light Rain
10:53 PM 48.0 °F 46.0 °F 93% 30.05 in 5.0 mi NNW 11.5 mph - 0.00 in   Overcast
11:53 PM 48.0 °F 46.0 °F 93% 30.04 in 5.0 mi NNW 13.8 mph - N/A   Overcast